| time (UTC) | temp F | wind direction | speed knots | gust knots | rain 1hr in | rain 24hr in | rain mn in | humidity % | barometer mb |
| 20260902203534 | 53 | 280 | 0.9 | 5.2 | 0.00 | 0.00 | 0.00 | 60 | 1009.1 |
| 20260902203055 | 53 | 355 | 0.0 | 5.2 | 0.00 | 0.00 | 0.00 | 62 | 1009.2 |
| 20260902202533 | 54 | 0 | 1.7 | 5.2 | 0.00 | 0.00 | 0.00 | 59 | 1009.2 |
| 20260902202032 | 53 | 0 | 0.0 | 1.7 | 0.00 | 0.00 | 0.00 | 63 | 1009.0 |
| 20260902201550 | 53 | 0 | 0.0 | 1.7 | 0.00 | 0.00 | 0.00 | 64 | 1008.8 |
| 20260902201032 | 53 | 290 | 0.0 | 1.7 | 0.00 | 0.00 | 0.00 | 62 | 1008.7 |
| 20260902200532 | 53 | 252 | 0.0 | 1.7 | 0.00 | 0.00 | 0.00 | 63 | 1008.8 |
| 20260902200046 | 54 | 108 | 0.0 | 1.7 | 0.00 | 0.00 | 0.00 | 61 | 1008.9 |
| 20260902195531 | 55 | 290 | 0.0 | 5.2 | 0.00 | 0.00 | 0.00 | 61 | 1009.0 |
| 20260902195034 | 55 | 89 | 0.9 | 5.2 | 0.00 | 0.00 | 0.00 | 59 | 1008.9 |
| 20260902194555 | 55 | 18 | 1.7 | 7.0 | 0.00 | 0.00 | 0.00 | 59 | 1008.9 |
| 20260902194032 | 55 | 343 | 2.6 | 8.7 | 0.00 | 0.00 | 0.00 | 59 | 1008.8 |
| 20260902193532 | 56 | 3 | 2.6 | 8.7 | 0.00 | 0.00 | 0.00 | 58 | 1008.9 |
| 20260902193049 | 56 | 309 | 1.7 | 9.6 | 0.00 | 0.00 | 0.00 | 57 | 1008.7 |
| 20260902192535 | 57 | 27 | 1.7 | 9.6 | 0.00 | 0.00 | 0.00 | 56 | 1008.5 |
| 20260902192035 | 57 | 321 | 3.5 | 9.6 | 0.00 | 0.00 | 0.00 | 56 | 1008.6 |
| 20260902191546 | 57 | 257 | 3.5 | 9.6 | 0.00 | 0.00 | 0.00 | 56 | 1008.5 |
| 20260902191035 | 57 | 301 | 4.3 | 12.2 | 0.00 | 0.00 | 0.00 | 55 | 1008.5 |
| 20260902190532 | 58 | 264 | 6.1 | 12.2 | 0.00 | 0.00 | 0.00 | 55 | 1008.5 |
| 20260902190100 | 58 | 285 | 7.0 | 12.2 | 0.00 | 0.00 | 0.00 | 55 | 1008.5 |
| 20260902185532 | 59 | 259 | 7.0 | 10.4 | 0.00 | 0.00 | 0.00 | 54 | 1008.5 |
| 20260902185035 | 59 | 265 | 4.3 | 11.3 | 0.00 | 0.00 | 0.00 | 54 | 1008.4 |
| 20260902184549 | 59 | 296 | 4.3 | 11.3 | 0.00 | 0.00 | 0.00 | 54 | 1008.5 |
| 20260902184034 | 59 | 326 | 5.2 | 9.6 | 0.00 | 0.00 | 0.00 | 54 | 1008.4 |
| 20260902183535 | 59 | 259 | 3.5 | 10.4 | 0.00 | 0.00 | 0.00 | 55 | 1008.4 |
| 20260902183110 | 59 | 196 | 3.5 | 10.4 | 0.00 | 0.00 | 0.00 | 56 | 1008.3 |
| 20260902182536 | 59 | 296 | 5.2 | 10.4 | 0.00 | 0.00 | 0.00 | 58 | 1008.2 |
| 20260902182034 | 59 | 223 | 2.6 | 6.1 | 0.00 | 0.00 | 0.00 | 57 | 1008.3 |
| 20260902181545 | 59 | 282 | 1.7 | 6.1 | 0.00 | 0.00 | 0.00 | 56 | 1008.2 |
| 20260902181032 | 60 | 237 | 2.6 | 6.1 | 0.00 | 0.00 | 0.00 | 56 | 1008.2 |
| 20260902180536 | 60 | 249 | 2.6 | 7.8 | 0.00 | 0.00 | 0.00 | 55 | 1008.3 |
| 20260902180050 | 61 | 252 | 3.5 | 7.8 | 0.00 | 0.00 | 0.00 | 54 | 1008.2 |
| 20260902175532 | 61 | 252 | 3.5 | 7.0 | 0.00 | 0.00 | 0.00 | 54 | 1008.2 |
| 20260902175033 | 61 | 238 | 2.6 | 7.0 | 0.00 | 0.00 | 0.00 | 54 | 1008.1 |
| 20260902174552 | 61 | 214 | 2.6 | 7.8 | 0.00 | 0.00 | 0.00 | 54 | 1008.1 |
| 20260902174034 | 61 | 212 | 3.5 | 8.7 | 0.00 | 0.00 | 0.00 | 53 | 1008.0 |
| 20260902173535 | 62 | 248 | 4.3 | 9.6 | 0.00 | 0.00 | 0.00 | 52 | 1008.0 |
| 20260902173111 | 62 | 229 | 5.2 | 9.6 | 0.00 | 0.00 | 0.00 | 51 | 1008.0 |
| 20260902172533 | 63 | 220 | 5.2 | 10.4 | 0.00 | 0.00 | 0.00 | 51 | 1008.0 |
| 20260902172034 | 63 | 266 | 4.3 | 13.0 | 0.00 | 0.00 | 0.00 | 50 | 1008.0 |
| 20260902171557 | 63 | 248 | 6.1 | 13.0 | 0.00 | 0.00 | 0.00 | 49 | 1008.1 |
| 20260902171032 | 64 | 263 | 6.1 | 13.0 | 0.00 | 0.00 | 0.00 | 49 | 1008.0 |
| 20260902170532 | 64 | 289 | 5.2 | 13.0 | 0.00 | 0.00 | 0.00 | 49 | 1008.1 |
| 20260902170052 | 64 | 279 | 7.0 | 13.0 | 0.00 | 0.00 | 0.00 | 48 | 1008.1 |
| 20260902165535 | 64 | 224 | 3.5 | 9.6 | 0.00 | 0.00 | 0.00 | 48 | 1008.1 |
| 20260902165032 | 64 | 255 | 5.2 | 11.3 | 0.00 | 0.00 | 0.00 | 48 | 1008.0 |
| 20260902164604 | 64 | 238 | 6.1 | 11.3 | 0.00 | 0.00 | 0.00 | 46 | 1008.1 |
| 20260902164034 | 65 | 231 | 4.3 | 10.4 | 0.00 | 0.00 | 0.00 | 46 | 1008.0 |
| 20260902163534 | 65 | 221 | 6.1 | 9.6 | 0.00 | 0.00 | 0.00 | 45 | 1008.0 |
| 20260902163052 | 66 | 231 | 2.6 | 7.8 | 0.00 | 0.00 | 0.00 | 45 | 1008.0 |
| 20260902162533 | 66 | 255 | 4.3 | 8.7 | 0.00 | 0.00 | 0.00 | 45 | 1007.9 |
| 20260902162034 | 66 | 243 | 4.3 | 10.4 | 0.00 | 0.00 | 0.00 | 43 | 1008.0 |
| 20260902161550 | 66 | 229 | 4.3 | 10.4 | 0.00 | 0.00 | 0.00 | 44 | 1007.9 |
| 20260902161031 | 66 | 228 | 5.2 | 10.4 | 0.00 | 0.00 | 0.00 | 43 | 1007.9 |
| 20260902160531 | 67 | 293 | 2.6 | 9.6 | 0.00 | 0.00 | 0.00 | 43 | 1007.9 |
| 20260902160047 | 67 | 259 | 4.3 | 9.6 | 0.00 | 0.00 | 0.00 | 42 | 1008.0 |
| 20260902155535 | 67 | 297 | 3.5 | 9.6 | 0.00 | 0.00 | 0.00 | 43 | 1008.0 |
| 20260902155032 | 67 | 300 | 4.3 | 9.6 | 0.00 | 0.00 | 0.00 | 43 | 1008.0 |
| 20260902154553 | 66 | 311 | 3.5 | 9.6 | 0.00 | 0.00 | 0.00 | 42 | 1007.9 |
| 20260902154034 | 67 | 289 | 5.2 | 10.4 | 0.00 | 0.00 | 0.00 | 42 | 1008.1 |
| 20260902153531 | 67 | 357 | 5.2 | 11.3 | 0.00 | 0.00 | 0.00 | 43 | 1007.9 |
| 20260902153059 | 67 | 245 | 7.0 | 13.0 | 0.00 | 0.00 | 0.00 | 42 | 1008.0 |
| 20260902152531 | 67 | 267 | 7.0 | 13.0 | 0.00 | 0.00 | 0.00 | 43 | 1008.0 |
| 20260902152032 | 67 | 269 | 7.0 | 13.0 | 0.00 | 0.00 | 0.00 | 42 | 1007.9 |
| 20260902151545 | 67 | 241 | 8.7 | 13.0 | 0.00 | 0.00 | 0.00 | 41 | 1007.9 |
| 20260902151031 | 68 | 274 | 3.5 | 16.5 | 0.00 | 0.00 | 0.00 | 42 | 1007.9 |
| 20260902150534 | 68 | 250 | 6.1 | 16.5 | 0.00 | 0.00 | 0.00 | 42 | 1008.0 |
| 20260902150055 | 68 | 237 | 8.7 | 13.9 | 0.00 | 0.00 | 0.00 | 41 | 1008.1 |
| 20260902145532 | 68 | 219 | 7.8 | 11.3 | 0.00 | 0.00 | 0.00 | 44 | 1008.0 |
| 20260902145031 | 68 | 257 | 5.2 | 12.2 | 0.00 | 0.00 | 0.00 | 43 | 1008.1 |
| 20260902144551 | 66 | 319 | 6.1 | 13.0 | 0.00 | 0.00 | 0.00 | 43 | 1008.1 |
| 20260902144031 | 66 | 214 | 6.1 | 13.0 | 0.00 | 0.00 | 0.00 | 44 | 1008.1 |
| 20260902143533 | 67 | 237 | 7.0 | 13.0 | 0.00 | 0.00 | 0.00 | 44 | 1008.1 |
| 20260902143048 | 67 | 280 | 5.2 | 14.8 | 0.00 | 0.00 | 0.00 | 43 | 1008.2 |
| 20260902142533 | 66 | 238 | 6.1 | 14.8 | 0.00 | 0.00 | 0.00 | 45 | 1008.2 |
| 20260902142032 | 67 | 246 | 7.8 | 13.9 | 0.00 | 0.00 | 0.00 | 44 | 1008.2 |
| 20260902141544 | 68 | 212 | 7.0 | 12.2 | 0.00 | 0.00 | 0.00 | 43 | 1008.1 |
| 20260902141031 | 67 | 245 | 5.2 | 13.0 | 0.00 | 0.00 | 0.00 | 46 | 1008.2 |
| 20260902140535 | 68 | 322 | 6.1 | 13.0 | 0.00 | 0.00 | 0.00 | 45 | 1008.3 |
| 20260902140053 | 68 | 291 | 5.2 | 11.3 | 0.00 | 0.00 | 0.00 | 45 | 1008.3 |
| 20260902135534 | 67 | 238 | 5.2 | 11.3 | 0.00 | 0.00 | 0.00 | 47 | 1008.2 |
| 20260902135034 | 67 | 288 | 4.3 | 8.7 | 0.00 | 0.00 | 0.00 | 48 | 1008.2 |
| 20260902134550 | 66 | 297 | 4.3 | 10.4 | 0.00 | 0.00 | 0.00 | 50 | 1008.4 |
| 20260902134032 | 65 | 251 | 4.3 | 13.9 | 0.00 | 0.00 | 0.00 | 48 | 1008.3 |
| 20260902133532 | 66 | 262 | 7.0 | 13.9 | 0.00 | 0.00 | 0.00 | 47 | 1008.5 |
| 20260902133101 | 67 | 247 | 6.1 | 13.9 | 0.00 | 0.00 | 0.00 | 47 | 1008.5 |
| 20260902132534 | 67 | 201 | 8.7 | 13.9 | 0.00 | 0.00 | 0.00 | 46 | 1008.4 |
| 20260902132032 | 67 | 289 | 8.7 | 13.9 | 0.00 | 0.00 | 0.00 | 47 | 1008.7 |
| 20260902131553 | 67 | 228 | 7.0 | 13.0 | 0.00 | 0.00 | 0.00 | 49 | 1008.6 |
| 20260902131033 | 67 | 233 | 5.2 | 15.6 | 0.00 | 0.00 | 0.00 | 48 | 1008.5 |
| 20260902130536 | 67 | 239 | 9.6 | 15.6 | 0.00 | 0.00 | 0.00 | 50 | 1008.7 |
| 20260902130049 | 66 | 258 | 4.3 | 14.8 | 0.00 | 0.00 | 0.00 | 51 | 1008.7 |
| 20260902125532 | 66 | 297 | 5.2 | 12.2 | 0.00 | 0.00 | 0.00 | 50 | 1008.5 |
| 20260902125032 | 67 | 239 | 7.8 | 13.0 | 0.00 | 0.00 | 0.00 | 52 | 1008.6 |
| 20260902124547 | 66 | 251 | 5.2 | 13.0 | 0.00 | 0.00 | 0.00 | 51 | 1008.7 |
| 20260902124034 | 66 | 236 | 7.8 | 13.0 | 0.00 | 0.00 | 0.00 | 52 | 1008.7 |
| 20260902123531 | 66 | 243 | 7.8 | 14.8 | 0.00 | 0.00 | 0.00 | 53 | 1008.6 |
| 20260902123056 | 66 | 236 | 9.6 | 14.8 | 0.00 | 0.00 | 0.00 | 51 | 1008.8 |
| 20260902122531 | 67 | 235 | 7.8 | 14.8 | 0.00 | 0.00 | 0.00 | 51 | 1008.5 |
| 20260902122033 | 66 | 244 | 9.6 | 14.8 | 0.00 | 0.00 | 0.00 | 51 | 1008.6 |
| 20260902121549 | 68 | 238 | 6.1 | 13.9 | 0.00 | 0.00 | 0.00 | 50 | 1008.6 |
| 20260902121034 | 65 | 250 | 5.2 | 10.4 | 0.00 | 0.00 | 0.00 | 54 | 1008.7 |
| 20260902120532 | 65 | 250 | 4.3 | 11.3 | 0.00 | 0.00 | 0.00 | 52 | 1008.7 |
| 20260902120053 | 66 | 240 | 5.2 | 13.0 | 0.00 | 0.00 | 0.00 | 50 | 1008.6 |
| 20260902115532 | 67 | 357 | 6.1 | 13.9 | 0.00 | 0.00 | 0.00 | 52 | 1008.6 |
| 20260902115034 | 66 | 243 | 7.8 | 19.1 | 0.00 | 0.00 | 0.00 | 49 | 1008.6 |
| 20260902114553 | 67 | 257 | 11.3 | 19.1 | 0.00 | 0.00 | 0.00 | 50 | 1008.5 |
| 20260902114034 | 68 | 237 | 7.0 | 13.9 | 0.00 | 0.00 | 0.00 | 49 | 1008.6 |
| 20260902113534 | 67 | 236 | 9.6 | 13.9 | 0.00 | 0.00 | 0.00 | 51 | 1008.7 |
| 20260902113053 | 66 | 264 | 5.2 | 15.6 | 0.00 | 0.00 | 0.00 | 52 | 1008.6 |
| 20260902112534 | 66 | 323 | 9.6 | 15.6 | 0.00 | 0.00 | 0.00 | 51 | 1008.7 |
| 20260902112031 | 67 | 229 | 7.0 | 13.0 | 0.00 | 0.00 | 0.00 | 52 | 1008.7 |
| 20260902111547 | 66 | 257 | 6.1 | 13.0 | 0.00 | 0.00 | 0.00 | 53 | 1008.8 |
| 20260902111032 | 65 | 218 | 5.2 | 17.4 | 0.00 | 0.00 | 0.00 | 53 | 1008.9 |
| 20260902110534 | 65 | 250 | 10.4 | 17.4 | 0.00 | 0.00 | 0.00 | 54 | 1008.9 |
| 20260902110050 | 65 | 218 | 5.2 | 12.2 | 0.00 | 0.00 | 0.00 | 54 | 1008.8 |
| 20260902105535 | 64 | 255 | 5.2 | 10.4 | 0.00 | 0.00 | 0.00 | 54 | 1008.9 |
| 20260902105034 | 64 | 283 | 3.5 | 13.0 | 0.00 | 0.00 | 0.00 | 55 | 1009.0 |
| 20260902104610 | 64 | 304 | 6.1 | 16.5 | 0.00 | 0.00 | 0.00 | 54 | 1009.0 |
| 20260902104036 | 65 | 252 | 8.7 | 17.4 | 0.00 | 0.00 | 0.00 | 53 | 1009.0 |
| 20260902103532 | 65 | 231 | 8.7 | 17.4 | 0.00 | 0.00 | 0.00 | 53 | 1008.9 |
| 20260902103106 | 65 | 225 | 7.0 | 17.4 | 0.00 | 0.00 | 0.00 | 54 | 1008.9 |
| 20260902102534 | 64 | 256 | 7.8 | 13.0 | 0.00 | 0.00 | 0.00 | 55 | 1009.0 |
| 20260902102031 | 64 | 248 | 5.2 | 14.8 | 0.00 | 0.00 | 0.00 | 55 | 1009.0 |
| 20260902101554 | 63 | 255 | 7.8 | 14.8 | 0.00 | 0.00 | 0.00 | 54 | 1009.0 |
| 20260902101032 | 63 | 250 | 7.8 | 13.0 | 0.00 | 0.00 | 0.00 | 56 | 1009.0 |
| 20260902100532 | 64 | 224 | 6.1 | 13.0 | 0.00 | 0.00 | 0.00 | 55 | 1009.0 |
| 20260902100044 | 63 | 308 | 7.8 | 13.0 | 0.00 | 0.00 | 0.00 | 54 | 1009.0 |
| 20260902095534 | 64 | 294 | 7.8 | 16.5 | 0.00 | 0.00 | 0.00 | 54 | 1009.0 |
| 20260902095032 | 63 | 232 | 8.7 | 16.5 | 0.00 | 0.00 | 0.00 | 55 | 1009.1 |
| 20260902094552 | 63 | 252 | 7.0 | 13.0 | 0.00 | 0.00 | 0.00 | 57 | 1009.0 |
| 20260902094031 | 63 | 323 | 4.3 | 14.8 | 0.00 | 0.00 | 0.00 | 55 | 1009.1 |
| 20260902093534 | 63 | 236 | 8.7 | 14.8 | 0.00 | 0.00 | 0.00 | 54 | 1009.0 |
| 20260902093047 | 63 | 224 | 8.7 | 14.8 | 0.00 | 0.00 | 0.00 | 55 | 1009.1 |
| 20260902092532 | 63 | 221 | 5.2 | 13.0 | 0.00 | 0.00 | 0.00 | 55 | 1009.1 |
| 20260902092034 | 63 | 268 | 4.3 | 14.8 | 0.00 | 0.00 | 0.00 | 57 | 1009.0 |
| 20260902091547 | 62 | 289 | 6.1 | 14.8 | 0.00 | 0.00 | 0.00 | 58 | 1009.1 |
| 20260902091035 | 63 | 250 | 7.8 | 12.2 | 0.00 | 0.00 | 0.00 | 56 | 1009.2 |
| 20260902090535 | 63 | 214 | 3.5 | 10.4 | 0.00 | 0.00 | 0.00 | 59 | 1009.2 |
| 20260902090051 | 62 | 206 | 5.2 | 9.6 | 0.00 | 0.00 | 0.00 | 58 | 1009.2 |
| 20260902085534 | 62 | 263 | 6.1 | 10.4 | 0.00 | 0.00 | 0.00 | 59 | 1009.2 |
| 20260902085034 | 61 | 219 | 3.5 | 15.6 | 0.00 | 0.00 | 0.00 | 60 | 1009.2 |
| 20260902084554 | 61 | 258 | 7.8 | 15.6 | 0.00 | 0.00 | 0.00 | 57 | 1009.3 |
| 20260902084032 | 61 | 219 | 6.1 | 11.3 | 0.00 | 0.00 | 0.00 | 58 | 1009.2 |
| 20260902083533 | 61 | 292 | 6.1 | 11.3 | 0.00 | 0.00 | 0.00 | 58 | 1009.1 |
| 20260902083051 | 61 | 278 | 5.2 | 9.6 | 0.00 | 0.00 | 0.00 | 58 | 1009.1 |
| 20260902082531 | 61 | 236 | 4.3 | 8.7 | 0.00 | 0.00 | 0.00 | 61 | 1009.1 |
| 20260902082031 | 60 | 252 | 5.2 | 8.7 | 0.00 | 0.00 | 0.00 | 62 | 1009.1 |
| 20260902081552 | 60 | 218 | 5.2 | 10.4 | 0.00 | 0.00 | 0.00 | 60 | 1009.1 |
| 20260902081031 | 60 | 212 | 5.2 | 10.4 | 0.00 | 0.00 | 0.00 | 62 | 1009.0 |
| 20260902080531 | 60 | 244 | 7.0 | 10.4 | 0.00 | 0.00 | 0.00 | 61 | 1009.1 |
| 20260902080050 | 59 | 229 | 4.3 | 8.7 | 0.00 | 0.00 | 0.00 | 65 | 1009.1 |
| 20260902075531 | 59 | 260 | 5.2 | 8.7 | 0.00 | 0.00 | 0.00 | 66 | 1009.1 |
| 20260902075032 | 59 | 303 | 3.5 | 10.4 | 0.00 | 0.00 | 0.00 | 65 | 1009.0 |
| 20260902074547 | 58 | 278 | 5.2 | 10.4 | 0.00 | 0.00 | 0.00 | 66 | 1009.0 |
| 20260902074034 | 58 | 177 | 4.3 | 8.7 | 0.00 | 0.00 | 0.00 | 68 | 1008.9 |
| 20260902073534 | 58 | 207 | 5.2 | 7.8 | 0.00 | 0.00 | 0.00 | 68 | 1008.9 |
| 20260902073053 | 57 | 239 | 4.3 | 7.8 | 0.00 | 0.00 | 0.00 | 71 | 1008.9 |
| 20260902072531 | 57 | 214 | 4.3 | 7.8 | 0.00 | 0.00 | 0.00 | 72 | 1008.8 |
| 20260902072059 | 57 | 214 | 4.3 | 9.6 | 0.00 | 0.00 | 0.00 | 71 | 1008.8 |
| 20260902071552 | 57 | 214 | 5.2 | 9.6 | 0.00 | 0.00 | 0.00 | 73 | 1008.8 |
| 20260902071031 | 56 | 214 | 4.3 | 7.8 | 0.00 | 0.00 | 0.00 | 74 | 1008.8 |
| 20260902070534 | 56 | 213 | 4.3 | 7.8 | 0.00 | 0.00 | 0.00 | 75 | 1008.8 |
| 20260902070050 | 56 | 221 | 5.2 | 7.8 | 0.00 | 0.00 | 0.00 | 77 | 1008.7 |
| 20260902065534 | 55 | 229 | 4.3 | 7.8 | 0.00 | 0.00 | 0.00 | 78 | 1008.8 |
| 20260902065035 | 55 | 230 | 4.3 | 10.4 | 0.00 | 0.00 | 0.00 | 79 | 1008.7 |
| 20260902064547 | 55 | 257 | 5.2 | 10.4 | 0.00 | 0.00 | 0.00 | 80 | 1008.6 |
| 20260902064034 | 55 | 241 | 6.1 | 10.4 | 0.00 | 0.00 | 0.00 | 79 | 1008.7 |
| 20260902063532 | 55 | 216 | 5.2 | 10.4 | 0.00 | 0.00 | 0.00 | 80 | 1008.5 |
| 20260902063106 | 54 | 227 | 4.3 | 7.0 | 0.00 | 0.00 | 0.00 | 82 | 1008.4 |
| 20260902062536 | 53 | 234 | 3.5 | 7.0 | 0.00 | 0.00 | 0.00 | 84 | 1008.4 |
| 20260902062034 | 53 | 215 | 3.5 | 7.0 | 0.00 | 0.00 | 0.00 | 86 | 1008.5 |
| 20260902061040 | 52 | 238 | 1.7 | 5.2 | 0.00 | 0.00 | 0.00 | 88 | 1008.4 |
| 20260902060534 | 52 | 207 | 0.9 | 5.2 | 0.00 | 0.00 | 0.00 | 89 | 1008.3 |
| 20260902060058 | 51 | 220 | 1.7 | 3.5 | 0.00 | 0.00 | 0.00 | 90 | 1008.3 |
| 20260902055533 | 51 | 199 | 0.9 | 2.6 | 0.00 | 0.00 | 0.00 | 91 | 1008.1 |
| 20260902055033 | 51 | 133 | 0.0 | 5.2 | 0.00 | 0.00 | 0.00 | 92 | 1008.0 |
| 20260902054555 | 51 | 271 | 0.9 | 6.1 | 0.00 | 0.00 | 0.00 | 93 | 1008.2 |
| 20260902054032 | 50 | 139 | 3.5 | 6.1 | 0.00 | 0.00 | 0.00 | 93 | 1008.0 |
| 20260902053536 | 50 | 0 | 0.0 | 3.5 | 0.00 | 0.00 | 0.00 | 93 | 1007.9 |
| 20260902053047 | 49 | 0 | 0.0 | 3.5 | 0.00 | 0.00 | 0.00 | 93 | 1007.9 |
| 20260902052532 | 49 | 109 | 0.0 | 0.9 | 0.00 | 0.00 | 0.00 | 93 | 1007.9 |
| 20260902052031 | 49 | 0 | 0.0 | 0.0 | 0.00 | 0.00 | 0.00 | 92 | 1007.9 |
| 20260902051557 | 49 | 0 | 0.0 | 0.0 | 0.00 | 0.00 | 0.00 | 92 | 1008.1 |
| 20260902051031 | 49 | 0 | 0.0 | 1.7 | 0.00 | 0.00 | 0.00 | 92 | 1008.0 |
| 20260902050532 | 49 | 0 | 0.0 | 1.7 | 0.00 | 0.00 | 0.00 | 92 | 1008.0 |
| 20260902050046 | 49 | 143 | 0.0 | 0.9 | 0.00 | 0.00 | 0.00 | 92 | 1008.1 |
| 20260902045531 | 49 | 0 | 0.0 | 2.6 | 0.00 | 0.00 | 0.00 | 92 | 1008.0 |
| 20260902045034 | 49 | 162 | 0.0 | 2.6 | 0.00 | 0.00 | 0.00 | 92 | 1008.1 |
| 20260902044606 | 49 | 207 | 0.9 | 2.6 | 0.00 | 0.00 | 0.00 | 91 | 1007.9 |
| 20260902044032 | 50 | 0 | 0.0 | 2.6 | 0.00 | 0.00 | 0.00 | 91 | 1008.0 |
| 20260902043530 | 50 | 0 | 0.0 | 2.6 | 0.00 | 0.00 | 0.00 | 92 | 1007.9 |
| 20260902043049 | 50 | 24 | 0.9 | 2.6 | 0.00 | 0.00 | 0.00 | 92 | 1008.0 |
| 20260902042532 | 49 | 0 | 0.9 | 1.7 | 0.00 | 0.00 | 0.00 | 91 | 1007.9 |
| 20260902042034 | 49 | 0 | 0.0 | 1.7 | 0.00 | 0.00 | 0.00 | 91 | 1007.8 |
| 20260902041557 | 50 | 79 | 0.9 | 1.7 | 0.00 | 0.00 | 0.00 | 91 | 1007.9 |
| 20260902041031 | 49 | 0 | 0.0 | 1.7 | 0.00 | 0.00 | 0.00 | 91 | 1007.8 |
| 20260902040531 | 50 | 94 | 0.9 | 1.7 | 0.00 | 0.00 | 0.00 | 91 | 1007.8 |
| 20260902040054 | 50 | 87 | 0.0 | 1.7 | 0.00 | 0.00 | 0.00 | 90 | 1007.8 |
| 20260902035531 | 50 | 104 | 0.0 | 1.7 | 0.00 | 0.00 | 0.00 | 90 | 1007.8 |
| 20260902035035 | 50 | 0 | 0.0 | 0.0 | 0.00 | 0.00 | 0.00 | 90 | 1007.8 |
| 20260902034552 | 50 | 0 | 0.0 | 0.0 | 0.00 | 0.00 | 0.00 | 90 | 1007.9 |
| 20260902034034 | 50 | 0 | 0.0 | 0.0 | 0.00 | 0.00 | 0.00 | 90 | 1007.9 |
| 20260902033531 | 50 | 0 | 0.0 | 0.0 | 0.00 | 0.00 | 0.00 | 89 | 1007.9 |
| 20260902033045 | 51 | 0 | 0.0 | 0.0 | 0.00 | 0.00 | 0.00 | 89 | 1007.8 |
| 20260902032534 | 51 | 0 | 0.0 | 0.0 | 0.00 | 0.00 | 0.00 | 89 | 1007.8 |
| 20260902032030 | 51 | 0 | 0.0 | 1.7 | 0.00 | 0.00 | 0.00 | 89 | 1007.9 |
| 20260902031601 | 51 | 0 | 0.0 | 4.3 | 0.00 | 0.00 | 0.00 | 89 | 1007.8 |
| 20260902031035 | 51 | 169 | 0.9 | 4.3 | 0.00 | 0.00 | 0.00 | 89 | 1007.8 |
| 20260902030537 | 51 | 0 | 0.0 | 1.7 | 0.00 | 0.00 | 0.00 | 89 | 1007.8 |
| 20260902030057 | 51 | 0 | 0.0 | 1.7 | 0.00 | 0.00 | 0.00 | 89 | 1007.8 |
| 20260902025535 | 51 | 0 | 0.0 | 1.7 | 0.00 | 0.00 | 0.00 | 89 | 1007.8 |
| 20260902025034 | 51 | 0 | 0.0 | 1.7 | 0.00 | 0.00 | 0.00 | 89 | 1007.7 |
| 20260902024557 | 51 | 0 | 0.0 | 1.7 | 0.00 | 0.00 | 0.00 | 89 | 1007.9 |
| 20260902024033 | 52 | 0 | 0.0 | 1.7 | 0.00 | 0.00 | 0.00 | 89 | 1007.8 |
| 20260902023536 | 51 | 0 | 0.0 | 1.7 | 0.00 | 0.00 | 0.00 | 89 | 1007.9 |
| 20260902023047 | 52 | 109 | 0.0 | 0.9 | 0.00 | 0.00 | 0.00 | 88 | 1007.8 |
| 20260902022532 | 52 | 0 | 0.0 | 0.9 | 0.00 | 0.00 | 0.00 | 88 | 1007.8 |
| 20260902022033 | 52 | 0 | 0.0 | 1.7 | 0.00 | 0.00 | 0.00 | 87 | 1008.0 |
| 20260902021553 | 53 | 0 | 0.0 | 2.6 | 0.00 | 0.00 | 0.00 | 87 | 1007.9 |
| 20260902021034 | 53 | 82 | 0.0 | 2.6 | 0.00 | 0.00 | 0.00 | 87 | 1007.8 |
| 20260902020533 | 53 | 102 | 1.7 | 2.6 | 0.00 | 0.00 | 0.00 | 87 | 1007.9 |
| 20260902020058 | 53 | 125 | 0.9 | 2.6 | 0.00 | 0.00 | 0.00 | 86 | 1008.0 |
| 20260902015533 | 53 | 134 | 0.9 | 2.6 | 0.00 | 0.00 | 0.00 | 85 | 1007.9 |
| 20260902015036 | 54 | 185 | 0.9 | 4.3 | 0.00 | 0.00 | 0.00 | 85 | 1007.9 |
| 20260902014546 | 54 | 155 | 0.0 | 4.3 | 0.00 | 0.00 | 0.00 | 86 | 1008.0 |
| 20260902014035 | 54 | 209 | 2.6 | 4.3 | 0.00 | 0.00 | 0.00 | 86 | 1008.1 |
| 20260902013533 | 53 | 256 | 2.6 | 3.5 | 0.00 | 0.00 | 0.00 | 87 | 1008.1 |
| 20260902013047 | 53 | 187 | 1.7 | 4.3 | 0.00 | 0.00 | 0.00 | 87 | 1008.2 |
| 20260902012534 | 53 | 0 | 0.0 | 4.3 | 0.00 | 0.00 | 0.00 | 88 | 1008.2 |
| 20260902012033 | 53 | 178 | 2.6 | 5.2 | 0.00 | 0.00 | 0.00 | 88 | 1008.1 |
| 20260902011551 | 53 | 216 | 2.6 | 5.2 | 0.00 | 0.00 | 0.00 | 87 | 1008.0 |
| 20260902011037 | 54 | 207 | 2.6 | 5.2 | 0.00 | 0.00 | 0.00 | 87 | 1008.1 |
| 20260902010530 | 55 | 184 | 2.6 | 5.2 | 0.00 | 0.00 | 0.00 | 88 | 1008.1 |
| 20260902010047 | 55 | 224 | 0.9 | 3.5 | 0.00 | 0.00 | 0.00 | 89 | 1008.3 |
| 20260902005531 | 55 | 217 | 0.9 | 2.6 | 0.00 | 0.00 | 0.00 | 89 | 1008.1 |
| 20260902005031 | 55 | 143 | 0.0 | 2.6 | 0.00 | 0.00 | 0.00 | 90 | 1008.3 |
| 20260902004556 | 54 | 141 | 1.7 | 3.5 | 0.00 | 0.00 | 0.00 | 90 | 1008.2 |
| 20260902004032 | 55 | 206 | 1.7 | 5.2 | 0.00 | 0.00 | 0.00 | 90 | 1008.3 |
| 20260902003530 | 55 | 227 | 3.5 | 5.2 | 0.00 | 0.00 | 0.00 | 90 | 1008.2 |
| 20260902003053 | 55 | 224 | 1.7 | 5.2 | 0.00 | 0.00 | 0.00 | 91 | 1008.3 |
| 20260902002533 | 56 | 206 | 2.6 | 6.1 | 0.00 | 0.00 | 0.00 | 91 | 1008.3 |
| 20260902002030 | 55 | 178 | 2.6 | 6.1 | 0.00 | 0.00 | 0.00 | 92 | 1008.3 |
| 20260902001551 | 56 | 165 | 2.6 | 6.1 | 0.00 | 0.00 | 0.00 | 92 | 1008.3 |
| 20260902001030 | 56 | 184 | 1.7 | 4.3 | 0.00 | 0.00 | 0.00 | 93 | 1008.4 |
| 20260902000530 | 56 | 212 | 1.7 | 4.3 | 0.00 | 0.00 | 0.00 | 93 | 1008.4 |
| 20260902000044 | 55 | 146 | 0.9 | 2.6 | 0.00 | 0.00 | 0.00 | 94 | 1008.4 |
| 20260901235532 | 55 | 0 | 0.0 | 2.6 | 0.00 | 0.00 | 0.00 | 94 | 1008.5 |
| 20260901235035 | 55 | 134 | 0.9 | 2.6 | 0.00 | 0.00 | 0.00 | 94 | 1008.4 |
| 20260901234547 | 55 | 0 | 0.0 | 3.5 | 0.00 | 0.00 | 0.00 | 94 | 1008.3 |
| 20260901234033 | 54 | 86 | 0.9 | 3.5 | 0.00 | 0.00 | 0.00 | 94 | 1008.3 |
| 20260901233531 | 54 | 105 | 0.9 | 3.5 | 0.00 | 0.00 | 0.00 | 94 | 1008.4 |
| 20260901233049 | 54 | 0 | 0.0 | 0.9 | 0.00 | 0.00 | 0.00 | 94 | 1008.2 |
| 20260901232531 | 54 | 0 | 0.0 | 0.9 | 0.00 | 0.00 | 0.00 | 94 | 1008.3 |
| 20260901232034 | 54 | 0 | 0.0 | 0.9 | 0.00 | 0.00 | 0.00 | 94 | 1008.5 |
| 20260901231550 | 54 | 110 | 0.0 | 0.9 | 0.00 | 0.00 | 0.00 | 94 | 1008.4 |
| 20260901231030 | 54 | 0 | 0.0 | 0.0 | 0.00 | 0.00 | 0.00 | 94 | 1008.4 |
| 20260901230534 | 54 | 0 | 0.0 | 1.7 | 0.00 | 0.00 | 0.00 | 94 | 1008.3 |
| 20260901230107 | 54 | 0 | 0.0 | 1.7 | 0.00 | 0.00 | 0.00 | 94 | 1008.1 |
| 20260901225533 | 54 | 109 | 0.0 | 0.0 | 0.00 | 0.00 | 0.00 | 94 | 1008.1 |
| 20260901225031 | 54 | 0 | 0.0 | 0.9 | 0.00 | 0.00 | 0.00 | 94 | 1008.1 |
| 20260901224550 | 54 | 0 | 0.0 | 2.6 | 0.00 | 0.00 | 0.00 | 94 | 1008.1 |
| 20260901224031 | 54 | 0 | 0.0 | 2.6 | 0.00 | 0.00 | 0.00 | 94 | 1008.1 |
| 20260901223534 | 54 | 98 | 0.9 | 2.6 | 0.00 | 0.00 | 0.00 | 93 | 1008.2 |
| 20260901223055 | 54 | 0 | 0.9 | 1.7 | 0.00 | 0.00 | 0.00 | 93 | 1008.2 |
| 20260901222536 | 54 | 0 | 0.0 | 0.0 | 0.00 | 0.00 | 0.00 | 93 | 1008.2 |
| 20260901222036 | 54 | 0 | 0.0 | 0.0 | 0.00 | 0.00 | 0.00 | 93 | 1008.2 |
| 20260901221607 | 55 | 0 | 0.0 | 0.0 | 0.00 | 0.00 | 0.00 | 93 | 1008.1 |
| 20260901221033 | 55 | 0 | 0.0 | 0.9 | 0.00 | 0.00 | 0.00 | 93 | 1008.2 |
| 20260901220532 | 55 | 0 | 0.0 | 1.7 | 0.00 | 0.00 | 0.00 | 93 | 1008.2 |
| 20260901220048 | 55 | 0 | 0.0 | 1.7 | 0.00 | 0.00 | 0.00 | 93 | 1008.2 |
| 20260901215535 | 55 | 104 | 0.9 | 1.7 | 0.00 | 0.00 | 0.00 | 93 | 1008.1 |
| 20260901215031 | 55 | 110 | 0.9 | 1.7 | 0.00 | 0.00 | 0.00 | 93 | 1008.1 |
| 20260901214546 | 55 | 112 | 0.9 | 1.7 | 0.00 | 0.00 | 0.00 | 93 | 1008.2 |
| 20260901214033 | 55 | 106 | 0.0 | 2.6 | 0.00 | 0.00 | 0.00 | 93 | 1008.1 |
| 20260901213537 | 56 | 140 | 0.0 | 2.6 | 0.00 | 0.00 | 0.00 | 93 | 1008.1 |
| 20260901213056 | 56 | 143 | 0.0 | 1.7 | 0.00 | 0.00 | 0.00 | 93 | 1008.0 |
| 20260901212533 | 56 | 117 | 0.0 | 1.7 | 0.00 | 0.00 | 0.00 | 93 | 1008.0 |
| 20260901212032 | 56 | 160 | 0.0 | 1.7 | 0.00 | 0.00 | 0.00 | 93 | 1008.1 |
| 20260901211551 | 55 | 0 | 0.0 | 1.7 | 0.00 | 0.00 | 0.00 | 93 | 1008.1 |
| 20260901211032 | 55 | 138 | 0.0 | 1.7 | 0.00 | 0.00 | 0.00 | 93 | 1008.2 |
| 20260901210534 | 56 | 141 | 0.0 | 3.5 | 0.00 | 0.00 | 0.00 | 93 | 1008.1 |
| 20260901210047 | 56 | 0 | 0.0 | 3.5 | 0.00 | 0.00 | 0.00 | 93 | 1008.2 |
| 20260901205532 | 55 | 123 | 1.7 | 2.6 | 0.00 | 0.00 | 0.00 | 92 | 1008.3 |
| 20260901205034 | 55 | 111 | 1.7 | 2.6 | 0.00 | 0.00 | 0.00 | 92 | 1008.3 |
| 20260901204544 | 56 | 124 | 1.7 | 2.6 | 0.00 | 0.00 | 0.00 | 92 | 1008.3 |
| 20260901204030 | 56 | 116 | 0.9 | 2.6 | 0.00 | 0.00 | 0.00 | 92 | 1008.5 |